Flag for Mexico Weather past 2 weeks in Matamoros, Tamaulipas, Mexico

Now
73 °F

Clear.


Feels Like: 71 °F
Forecast: 69 / 82 °F
Wind: 5 mph from Northeast

Location: Brownsville / South Padre Island International Airport

Current Time: Oct 23, 2014 at 12:59:10 AM

Latest Report: Oct 22, 2014 at 11:53 PM


Visibility: 10 mi

Pressure: 30.02 "Hg

Humidity: 88%

Dew point: 69 °F

Location of MatamorosLocation

Historic Weather in Matamoros — Graph

°F

Matamoros temperature yesterday

Maximum temperature yesterday: 86 °F (at 1:53 PM)
Minimum temperature yesterday: 73 °F (at 4:53 AM)
Average temperature yesterday: 77 °F

Past Weeks' High & Low Weather Summary

 TemperatureHumidityPressure
High91 °F (Oct 13, 3:53 PM)97% (Oct 8, 4:53 AM)30.16 "Hg (Oct 8, 4:53 AM)
Low57 °F (Oct 15, 3:53 AM)26% (Oct 15, 2:53 PM)29.74 "Hg (Oct 13, 4:53 AM)
Average78 °F74%29.94 "Hg
* Reported Oct 7 11:53 PM — Oct 22 11:53 PM, Matamoros, Weather by CustomWeather, © 2014

Note: Actual official high and low records may vary slightly from our data, if they occured in-between our weather recording intervals... More about our weather records

Advertising

Matamoros weather history for previous 24 hours

 ConditionsComfort  
Time TempWeatherWind HumidityBarometerVisibility
11:53 PM
Oct 22
73 °FClear.5 mph88%30.02 "Hg10 mi
10:53 PM74 °FClear.6 mph85%30.02 "Hg10 mi
9:53 PM74 °FClear.5 mph82%30.01 "Hg10 mi
8:53 PM75 °FClear.5 mph79%30.00 "Hg10 mi
7:53 PM76 °FSunny.6 mph77%29.99 "Hg10 mi
6:53 PM78 °FSunny.7 mph71%29.98 "Hg10 mi
5:53 PM81 °FPartly sunny.12 mph65%29.96 "Hg10 mi
4:53 PM83 °FPassing clouds.13 mph59%29.95 "Hg10 mi
3:53 PM83 °FBroken clouds.12 mph61%29.95 "Hg10 mi
2:53 PM83 °FMostly cloudy.13 mph63%29.96 "Hg10 mi
1:53 PM86 °FPassing clouds.17 mph61%29.97 "Hg10 mi
12:53 PM82 °FScattered clouds.12 mph72%30.00 "Hg10 mi
11:53 AM78 °FMostly cloudy.5 mph87%30.01 "Hg7 mi
11:02 AM79 °FBroken clouds.5 mph89%30.02 "Hg10 mi
10:53 AM77 °FPartly sunny.6 mph94%30.01 "Hg10 mi
9:53 AM74 °FLight rain. Cloudy.No wind94%30.01 "Hg9 mi
8:53 AM73 °FLight rain. Mostly cloudy.8 mph97%30.00 "Hg10 mi
7:53 AM75 °FHeavy rain. Fog.8 mph90%29.97 "Hg2 mi
7:01 AM73 °FHeavy rain. Fog.13 mph94%29.96 "Hg2 mi
5:53 AM73 °FPassing clouds.5 mph94%29.93 "Hg10 mi
4:53 AM73 °FLight rain. Partly cloudy.12 mph90%29.92 "Hg10 mi
3:53 AM75 °FPassing clouds.6 mph90%29.92 "Hg10 mi
2:53 AM76 °FClear.6 mph85%29.92 "Hg10 mi
1:53 AM76 °FClear.7 mph88%29.93 "Hg10 mi
12:53 AM77 °FClear.7 mph82%29.93 "Hg10 mi
Weather by CustomWeather, © 2014

See weather overviewHow to use our weather pages